This is the latest recevied weather packets stored in our database for station/object N4DWK. If no packets are shown the sender has not sent any weather packets the latest 10 day(s).
| Time | Temp. | Humidity | Pressure | Rain* | Wind** | Luminosity | Snow |
|---|---|---|---|---|---|---|---|
| 1777754706 | 15.56° C | 50% | 1011.6 hPa | 0 mm | - | 76 W/m² | - |
| 1777754406 | 15.56° C | 50% | 1011.6 hPa | 0 mm | - | 105 W/m² | - |
| 1777754106 | 15.56° C | 49% | 1011.7 hPa | 0 mm | - | 132 W/m² | - |
| 1777753806 | 15.56° C | 49% | 1011.7 hPa | 0 mm | - | 130 W/m² | - |
| 1777753506 | 15.56° C | 47% | 1011.7 hPa | 0 mm | - | 97 W/m² | - |
| 1777753206 | 16.11° C | 50% | 1011.7 hPa | 0 mm | - | 100 W/m² | - |
| 1777752606 | 16.11° C | 48% | 1011.8 hPa | 0 mm | - | 95 W/m² | - |
| 1777752306 | 16.11° C | 49% | 1011.8 hPa | 0 mm | - | 91 W/m² | - |
| 1777752007 | 16.11° C | 49% | 1011.8 hPa | 0 mm | - | 139 W/m² | - |
| 1777751706 | 15.56° C | 50% | 1011.7 hPa | 0 mm | - | 214 W/m² | - |
| 1777751405 | 15.56° C | 47% | 1011.8 hPa | 0 mm | - | 100 W/m² | - |
| 1777751105 | 15.56° C | 47% | 1012 hPa | 0 mm | - | 95 W/m² | - |
| 1777750806 | 16.11° C | 47% | 1011.9 hPa | 0 mm | - | 144 W/m² | - |
| 1777750506 | 16.67° C | 46% | 1012.1 hPa | 0 mm | - | 155 W/m² | - |
| 1777750206 | 16.67° C | 46% | 1012.1 hPa | 0 mm | - | 197 W/m² | - |
| 1777749905 | 16.11° C | 49% | 1012.2 hPa | 0 mm | - | 255 W/m² | - |
| 1777749605 | 15.56° C | 49% | 1012.2 hPa | 0 mm | - | 207 W/m² | - |
| 1777749305 | 15.56° C | 50% | 1012.3 hPa | 0 mm | - | 174 W/m² | - |
| 1777749005 | 15.56° C | 50% | 1012.4 hPa | 0 mm | - | 151 W/m² | - |
| 1777748705 | 15.56° C | 49% | 1012.3 hPa | 0 mm | - | 185 W/m² | - |
| 1777748406 | 15.56° C | 50% | 1012.5 hPa | 0 mm | - | 179 W/m² | - |
| 1777748106 | 15° C | 52% | 1012.6 hPa | 0 mm | - | 169 W/m² | - |
| 1777747805 | 15.56° C | 51% | 1012.7 hPa | 0 mm | - | 188 W/m² | - |
| 1777747506 | 15.56° C | 50% | 1012.8 hPa | 0 mm | - | 163 W/m² | - |
| 1777747206 | 15.56° C | 50% | 1012.7 hPa | 0 mm | - | 241 W/m² | - |
* Rain latest hour (hover to see other rain measurements)
** Current wind speed in m/s (hover to see current wind gust speed)